VKG25Q ENZV-LEPA

Flight info

Callsign VKG25Q
Flight time 2h 51m
Altitude 37000
Route RUMOG DCT SUTEB/N0440F360 DCT NIK/N0442F370 DCT KOVIN/N0431F330 DCT DUCRA UM728 RESMI UN857 DISAK/N0434F370 DCT DIRMO DCT VALKU DCT ATSUP DCT MINSO DCT DEGOL DCT PPG DCT ALBER P84 LORES
Aircraft A21N/M-SDE2E3FGHIRWXY/LB1

Departure

Time 2026-04-21 05:37
Airport Stavanger Airport, Sola (ENZV)

Arrival

Time 2026-04-21 08:28
Airport Palma de Mallorca Airport (LEPA)
Time Latitude Longitude Altitude Speed Heading
2026-04-21 05:16 58.88056 5.62743 31 ft 0 kts 16°
2026-04-21 05:28 58.88051 5.62741 30 ft 4 kts 16°
2026-04-21 05:29 58.88025 5.62726 30 ft 4 kts 16°
2026-04-21 05:29 58.88010 5.62717 30 ft 0 kts 16°
2026-04-21 05:31 58.88014 5.62720 30 ft 3 kts 18°
2026-04-21 05:31 58.88018 5.62744 30 ft 3 kts 108°
2026-04-21 05:31 58.88008 5.62790 30 ft 6 kts 113°
2026-04-21 05:32 58.87990 5.62888 32 ft 10 kts 95°
2026-04-21 05:32 58.88007 5.63033 33 ft 12 kts 59°
2026-04-21 05:32 58.88057 5.63152 33 ft 12 kts 45°
2026-04-21 05:32 58.88125 5.63262 34 ft 14 kts 28°
2026-04-21 05:33 58.88217 5.63298 35 ft 8 kts 353°
2026-04-21 05:33 58.88270 5.63342 37 ft 10 kts 58°
2026-04-21 05:33 58.88329 5.63422 36 ft 12 kts
2026-04-21 05:33 58.88417 5.63425 36 ft 13 kts 357°
2026-04-21 05:34 58.88512 5.63416 36 ft 15 kts 358°
2026-04-21 05:34 58.88618 5.63419 37 ft 16 kts
2026-04-21 05:34 58.88734 5.63417 37 ft 17 kts 357°
2026-04-21 05:34 58.88858 5.63415 36 ft 18 kts 356°
2026-04-21 05:35 58.88988 5.63409 33 ft 19 kts 354°
2026-04-21 05:35 58.89124 5.63404 31 ft 20 kts
2026-04-21 05:35 58.89235 5.63396 30 ft 15 kts 357°
2026-04-21 05:35 58.89324 5.63436 26 ft 12 kts 42°
2026-04-21 05:36 58.89345 5.63599 23 ft 13 kts 91°
2026-04-21 05:36 58.89294 5.63734 24 ft 7 kts 171°
2026-04-21 05:36 58.89291 5.63734 24 ft 6 kts 174°
2026-04-21 05:36 58.89046 5.63703 28 ft 53 kts 189°
2026-04-21 05:37 58.88518 5.63725 35 ft 100 kts 178°
2026-04-21 05:37 58.87623 5.63785 50 ft 152 kts 179°
2026-04-21 05:37 58.86609 5.63827 637 ft 141 kts 179°
2026-04-21 05:37 58.85544 5.63858 874 ft 162 kts 179°
2026-04-21 05:38 58.84400 5.63885 1418 ft 166 kts 179°
2026-04-21 05:38 58.83237 5.63918 2034 ft 167 kts 179°
2026-04-21 05:38 58.82021 5.63953 2486 ft 185 kts 179°
2026-04-21 05:38 58.80673 5.63994 3026 ft 201 kts 179°
2026-04-21 05:39 58.79232 5.64039 3672 ft 213 kts 179°
2026-04-21 05:39 58.77724 5.64082 4304 ft 226 kts 179°
2026-04-21 05:39 58.76076 5.64131 4841 ft 248 kts 179°
2026-04-21 05:39 58.74255 5.64184 5436 ft 266 kts 179°
2026-04-21 05:40 58.72379 5.64239 6273 ft 272 kts 179°
2026-04-21 05:40 58.70501 5.64292 7148 ft 275 kts 178°
2026-04-21 05:40 58.68578 5.64273 8005 ft 279 kts 183°
2026-04-21 05:40 58.66637 5.63870 8884 ft 283 kts 186°
2026-04-21 05:41 58.64675 5.63366 9768 ft 287 kts 186°
2026-04-21 05:41 58.62677 5.62854 10627 ft 291 kts 186°
2026-04-21 05:41 58.60611 5.62334 11123 ft 310 kts 185°
2026-04-21 05:41 58.58393 5.61782 11506 ft 331 kts 185°
2026-04-21 05:42 58.56078 5.61210 12166 ft 339 kts 185°
2026-04-21 05:42 58.53723 5.60623 12984 ft 343 kts 185°
2026-04-21 05:42 58.51344 5.60027 13823 ft 347 kts 185°
2026-04-21 05:42 58.48935 5.59426 14614 ft 351 kts 185°
2026-04-21 05:43 58.46501 5.58824 15322 ft 355 kts 185°
2026-04-21 05:43 58.44041 5.58219 16034 ft 359 kts 185°
2026-04-21 05:43 58.41547 5.57605 16741 ft 363 kts 185°
2026-04-21 05:43 58.39025 5.56990 17442 ft 368 kts 185°
2026-04-21 05:44 58.36470 5.56367 18131 ft 372 kts 185°
2026-04-21 05:44 58.33887 5.55734 18805 ft 377 kts 185°
2026-04-21 05:44 58.31271 5.55092 19389 ft 381 kts 185°
2026-04-21 05:44 58.28631 5.54447 19987 ft 384 kts 185°
2026-04-21 05:45 58.25969 5.53795 20581 ft 387 kts 185°
2026-04-21 05:45 58.23291 5.53143 21169 ft 390 kts 185°
2026-04-21 05:45 58.20585 5.52592 21748 ft 391 kts 180°
2026-04-21 05:45 58.17856 5.52439 22313 ft 394 kts 178°
2026-04-21 05:46 58.15107 5.52355 22874 ft 397 kts 178°
2026-04-21 05:46 58.12340 5.52272 23426 ft 400 kts 178°
2026-04-21 05:46 58.09548 5.52182 23984 ft 403 kts 179°
2026-04-21 05:46 58.06736 5.52083 24484 ft 405 kts 178°
2026-04-21 05:47 58.03913 5.51982 24982 ft 407 kts 178°
2026-04-21 05:47 58.01109 5.51882 25459 ft 409 kts 178°
2026-04-21 05:47 57.98252 5.51780 25929 ft 411 kts 178°
2026-04-21 05:47 57.95384 5.51675 26389 ft 413 kts 179°
2026-04-21 05:48 57.92504 5.51568 26841 ft 415 kts 179°
2026-04-21 05:48 57.89606 5.51466 27282 ft 417 kts 179°
2026-04-21 05:48 57.86691 5.51363 27712 ft 420 kts 179°
2026-04-21 05:48 57.83767 5.51259 28125 ft 422 kts 179°
2026-04-21 05:49 57.80820 5.51154 28535 ft 424 kts 179°
2026-04-21 05:49 57.77869 5.51051 28940 ft 426 kts 179°
2026-04-21 05:49 57.74899 5.50947 29326 ft 428 kts 179°
2026-04-21 05:49 57.71914 5.50843 29710 ft 430 kts 179°
2026-04-21 05:50 57.68911 5.50738 30083 ft 432 kts 179°
2026-04-21 05:50 57.65900 5.50632 30462 ft 434 kts 179°
2026-04-21 05:50 57.62869 5.50526 30788 ft 437 kts 179°
2026-04-21 05:50 57.59828 5.50420 31080 ft 439 kts 179°
2026-04-21 05:51 57.56771 5.50313 31376 ft 441 kts 179°
2026-04-21 05:51 57.53694 5.50203 31657 ft 443 kts 179°
2026-04-21 05:51 57.50605 5.50095 31935 ft 445 kts 178°
2026-04-21 05:51 57.47498 5.49985 32180 ft 448 kts 178°
2026-04-21 05:52 57.44380 5.49875 32504 ft 448 kts 178°
2026-04-21 05:52 57.41273 5.49768 32849 ft 447 kts 178°
2026-04-21 05:52 57.38159 5.49661 33184 ft 447 kts 178°
2026-04-21 05:52 57.35097 5.49555 33507 ft 447 kts 178°
2026-04-21 05:53 57.31992 5.49447 33798 ft 446 kts 178°
2026-04-21 05:53 57.28884 5.49337 34096 ft 446 kts 178°
2026-04-21 05:53 57.25784 5.49230 34397 ft 446 kts 178°
2026-04-21 05:53 57.22681 5.49124 34624 ft 446 kts 178°
2026-04-21 05:54 57.19570 5.49018 34820 ft 447 kts 178°
2026-04-21 05:54 57.16459 5.48911 35018 ft 447 kts 178°
2026-04-21 05:54 57.13344 5.48803 35213 ft 448 kts 178°
2026-04-21 05:54 57.10225 5.48697 35397 ft 448 kts 178°
2026-04-21 05:55 57.07106 5.48591 35582 ft 449 kts 178°
2026-04-21 05:55 57.03975 5.48486 35763 ft 449 kts 178°
2026-04-21 05:55 57.00846 5.48380 35929 ft 450 kts 178°
2026-04-21 05:55 56.97720 5.48274 36112 ft 450 kts 178°
2026-04-21 05:56 56.94583 5.48168 36282 ft 451 kts 178°
2026-04-21 05:56 56.91447 5.48062 36447 ft 451 kts 178°
2026-04-21 05:56 56.88303 5.47956 36631 ft 452 kts 178°
2026-04-21 05:56 56.85162 5.47849 36804 ft 452 kts 178°
2026-04-21 05:57 56.82018 5.47743 36965 ft 452 kts 178°
2026-04-21 05:57 56.78865 5.47637 37129 ft 453 kts 178°
2026-04-21 05:57 56.75715 5.47532 37289 ft 453 kts 179°
2026-04-21 05:57 56.72559 5.47426 37445 ft 454 kts 179°
2026-04-21 05:58 56.69409 5.47321 37586 ft 455 kts 179°
2026-04-21 05:58 56.66239 5.47216 37596 ft 455 kts 179°
2026-04-21 05:58 56.59949 5.47006 37546 ft 455 kts 179°
2026-04-21 05:59 56.53581 5.46793 37533 ft 455 kts 179°
2026-04-21 06:00 56.45161 5.46515 37546 ft 454 kts 179°
2026-04-21 06:00 56.37803 5.46273 37528 ft 455 kts 179°
2026-04-21 06:01 56.32498 5.46097 37527 ft 455 kts 179°
2026-04-21 06:01 56.26169 5.45891 37527 ft 455 kts 179°
2026-04-21 06:02 56.19831 5.45684 37527 ft 455 kts 179°
2026-04-21 06:02 56.13496 5.45478 37518 ft 456 kts 179°
2026-04-21 06:03 56.07197 5.45276 37518 ft 456 kts 179°
2026-04-21 06:03 56.00854 5.45071 37517 ft 456 kts 179°
2026-04-21 06:04 55.94577 5.44866 37512 ft 456 kts 179°
2026-04-21 06:04 55.88239 5.44665 37511 ft 456 kts 179°
2026-04-21 06:05 55.81899 5.44464 37509 ft 456 kts 179°
2026-04-21 06:05 55.75562 5.44261 37505 ft 456 kts 179°
2026-04-21 06:06 55.69220 5.44056 37506 ft 456 kts 179°
2026-04-21 06:06 55.62878 5.43858 37504 ft 457 kts 179°
2026-04-21 06:07 55.56519 5.43656 37499 ft 457 kts 179°
2026-04-21 06:07 55.50169 5.43456 37498 ft 457 kts 179°
2026-04-21 06:08 55.43810 5.43255 37494 ft 457 kts 179°
2026-04-21 06:08 55.37452 5.43060 37498 ft 458 kts 179°
2026-04-21 06:09 55.31076 5.42861 37491 ft 458 kts 179°
2026-04-21 06:09 55.24692 5.42662 37488 ft 458 kts 179°
2026-04-21 06:10 55.18365 5.42465 37486 ft 458 kts 179°
2026-04-21 06:10 55.11987 5.42266 37484 ft 459 kts 179°
2026-04-21 06:11 55.05599 5.42071 37480 ft 459 kts 179°
2026-04-21 06:11 54.99215 5.41604 37474 ft 461 kts 187°
2026-04-21 06:12 54.92906 5.39474 37482 ft 461 kts 190°
2026-04-21 06:12 54.86613 5.37210 37484 ft 461 kts 190°
2026-04-21 06:13 54.80322 5.34999 37477 ft 461 kts 190°
2026-04-21 06:13 54.74038 5.32799 37476 ft 461 kts 190°
2026-04-21 06:14 54.67744 5.30606 37472 ft 461 kts 190°
2026-04-21 06:14 54.61456 5.28422 37469 ft 461 kts 190°
2026-04-21 06:15 54.55158 5.26247 37465 ft 462 kts 190°
2026-04-21 06:15 54.48861 5.24083 37455 ft 462 kts 190°
2026-04-21 06:16 54.42555 5.21918 37457 ft 462 kts 190°
2026-04-21 06:16 54.36250 5.19755 37456 ft 464 kts 190°
2026-04-21 06:17 54.29904 5.17590 37453 ft 466 kts 190°
2026-04-21 06:17 54.23575 5.15441 37456 ft 464 kts 190°
2026-04-21 06:18 54.17227 5.13287 37442 ft 466 kts 190°
2026-04-21 06:18 54.10868 5.11138 37443 ft 464 kts 190°
2026-04-21 06:19 54.04490 5.08990 37452 ft 468 kts 190°
2026-04-21 06:19 53.98113 5.06844 37440 ft 467 kts 191°
2026-04-21 06:20 53.91724 5.04702 37431 ft 468 kts 190°
2026-04-21 06:20 53.85359 5.02583 37426 ft 466 kts 191°
2026-04-21 06:21 53.78966 5.00454 37429 ft 468 kts 191°
2026-04-21 06:21 53.72592 4.98336 37411 ft 469 kts 190°
2026-04-21 06:22 53.66190 4.96220 37423 ft 468 kts 191°
2026-04-21 06:22 53.59799 4.94109 37410 ft 470 kts 191°
2026-04-21 06:23 53.53407 4.92006 37408 ft 466 kts 191°
2026-04-21 06:23 53.47053 4.89932 37411 ft 468 kts 191°
2026-04-21 06:24 53.40677 4.87847 37390 ft 467 kts 191°
2026-04-21 06:24 53.34274 4.85761 37382 ft 469 kts 191°
2026-04-21 06:25 53.27875 4.83685 37374 ft 468 kts 191°
2026-04-21 06:25 53.21464 4.81617 37384 ft 467 kts 191°
2026-04-21 06:26 53.15073 4.79560 37373 ft 469 kts 191°
2026-04-21 06:26 53.08657 4.77490 37376 ft 467 kts 191°
2026-04-21 06:27 53.02239 4.75421 37386 ft 472 kts 191°
2026-04-21 06:27 52.95822 4.73369 37377 ft 468 kts 191°
2026-04-21 06:28 52.89437 4.71331 37371 ft 471 kts 191°
2026-04-21 06:28 52.83021 4.69289 37373 ft 470 kts 191°
2026-04-21 06:29 52.76666 4.67271 37374 ft 469 kts 191°
2026-04-21 06:29 52.70270 4.65251 37358 ft 471 kts 191°
2026-04-21 06:30 52.64053 4.63292 37356 ft 467 kts 192°
2026-04-21 06:30 52.57646 4.61279 37353 ft 469 kts 192°
2026-04-21 06:31 52.51383 4.59322 37342 ft 466 kts 192°
2026-04-21 06:31 52.44992 4.57324 37336 ft 468 kts 192°
2026-04-21 06:32 52.38609 4.55336 37333 ft 466 kts 192°
2026-04-21 06:32 52.32238 4.53360 37328 ft 467 kts 192°
2026-04-21 06:33 52.25865 4.51385 37328 ft 466 kts 192°
2026-04-21 06:33 52.19486 4.49419 37317 ft 466 kts 192°
2026-04-21 06:34 52.13139 4.47463 37323 ft 464 kts 192°
2026-04-21 06:34 52.06789 4.45512 37321 ft 464 kts 192°
2026-04-21 06:35 52.00434 4.43568 37320 ft 464 kts 192°
2026-04-21 06:35 51.94124 4.41643 37319 ft 465 kts 193°
2026-04-21 06:36 51.87758 4.39704 37319 ft 465 kts 193°
2026-04-21 06:36 51.81401 4.37776 37315 ft 465 kts 193°
2026-04-21 06:37 51.75004 4.35842 37312 ft 465 kts 193°
2026-04-21 06:37 51.68676 4.33930 37296 ft 466 kts 193°
2026-04-21 06:38 51.62264 4.32000 37287 ft 466 kts 193°
2026-04-21 06:38 51.55928 4.30105 37286 ft 466 kts 193°
2026-04-21 06:39 51.49557 4.28203 37281 ft 466 kts 193°
2026-04-21 06:39 51.43198 4.26309 37290 ft 466 kts 193°
2026-04-21 06:40 51.36835 4.24411 37292 ft 466 kts 193°
2026-04-21 06:40 51.30460 4.22516 37290 ft 466 kts 193°
2026-04-21 06:41 51.24076 4.20631 37282 ft 465 kts 193°
2026-04-21 06:41 51.17721 4.18728 37290 ft 465 kts 195°
2026-04-21 06:42 51.11691 4.15285 37296 ft 460 kts 206°
2026-04-21 06:42 51.05797 4.11300 37285 ft 460 kts 206°
2026-04-21 06:43 50.99892 4.07376 37284 ft 460 kts 206°
2026-04-21 06:43 50.93985 4.03468 37285 ft 460 kts 206°
2026-04-21 06:44 50.88075 3.99571 37278 ft 460 kts 206°
2026-04-21 06:44 50.82162 3.95685 37274 ft 460 kts 206°
2026-04-21 06:45 50.76254 3.91813 37265 ft 459 kts 206°
2026-04-21 06:45 50.70339 3.87948 37266 ft 460 kts 206°
2026-04-21 06:46 50.64448 3.84111 37266 ft 460 kts 206°
2026-04-21 06:46 50.58560 3.80284 37253 ft 460 kts 206°
2026-04-21 06:47 50.52611 3.76428 37262 ft 459 kts 206°
2026-04-21 06:47 50.47701 3.73258 37262 ft 459 kts 206°
2026-04-21 06:48 50.40828 3.68823 37263 ft 459 kts 207°
2026-04-21 06:48 50.35882 3.65639 37241 ft 459 kts 207°
2026-04-21 06:49 50.29975 3.61859 37257 ft 459 kts 207°
2026-04-21 06:49 50.24070 3.58086 37245 ft 458 kts 207°
2026-04-21 06:50 50.18169 3.54313 37242 ft 458 kts 207°
2026-04-21 06:50 50.12303 3.50579 37230 ft 458 kts 207°
2026-04-21 06:51 50.06407 3.46833 37237 ft 457 kts 207°
2026-04-21 06:51 50.00520 3.43106 37237 ft 457 kts 207°
2026-04-21 06:52 49.94623 3.39384 37239 ft 457 kts 207°
2026-04-21 06:52 49.88724 3.35669 37227 ft 457 kts 208°
2026-04-21 06:53 49.82823 3.31968 37233 ft 457 kts 208°
2026-04-21 06:53 49.76930 3.28276 37235 ft 457 kts 208°
2026-04-21 06:54 49.71041 3.24595 37229 ft 457 kts 208°
2026-04-21 06:54 49.65151 3.20926 37220 ft 456 kts 208°
2026-04-21 06:55 49.59263 3.17264 37222 ft 456 kts 208°
2026-04-21 06:55 49.53371 3.13614 37222 ft 457 kts 208°
2026-04-21 06:56 49.47661 3.09721 37205 ft 447 kts 218°
2026-04-21 06:56 49.42515 3.04537 37225 ft 442 kts 220°
2026-04-21 06:57 49.37445 2.99351 37219 ft 442 kts 220°
2026-04-21 06:57 49.32351 2.94173 37221 ft 443 kts 220°
2026-04-21 06:58 49.27240 2.89010 37214 ft 443 kts 220°
2026-04-21 06:58 49.22139 2.83879 37207 ft 441 kts 220°
2026-04-21 06:59 49.17067 2.78772 37208 ft 441 kts 220°
2026-04-21 06:59 49.11928 2.73620 37204 ft 441 kts 220°
2026-04-21 07:00 49.06844 2.68543 37200 ft 441 kts 220°
2026-04-21 07:00 49.01713 2.63421 37178 ft 441 kts 219°
2026-04-21 07:01 48.96570 2.58300 37201 ft 439 kts 219°
2026-04-21 07:01 48.88886 2.50683 37225 ft 440 kts 219°
2026-04-21 07:02 48.83759 2.45609 37206 ft 440 kts 219°
2026-04-21 07:02 48.78629 2.40547 37202 ft 440 kts 219°
2026-04-21 07:03 48.73611 2.35608 37199 ft 440 kts 219°
2026-04-21 07:03 48.68505 2.30597 37201 ft 440 kts 219°
2026-04-21 07:04 48.63365 2.25569 37203 ft 441 kts 219°
2026-04-21 07:04 48.58252 2.20649 37193 ft 442 kts 215°
2026-04-21 07:05 48.55497 2.18796 37196 ft 452 kts 204°
2026-04-21 07:05 48.52410 2.17617 37197 ft 457 kts 198°
2026-04-21 07:05 48.46248 2.15727 37193 ft 457 kts 197°
2026-04-21 07:06 48.40068 2.13781 37167 ft 455 kts 198°
2026-04-21 07:06 48.34018 2.11838 37178 ft 454 kts 198°
2026-04-21 07:07 48.27820 2.10307 37168 ft 462 kts 186°
2026-04-21 07:07 48.21363 2.11357 37179 ft 469 kts 176°
2026-04-21 07:08 48.14913 2.12818 37167 ft 467 kts 176°
2026-04-21 07:08 48.08455 2.13484 37176 ft 465 kts 183°
2026-04-21 07:09 48.01984 2.13843 37171 ft 465 kts 183°
2026-04-21 07:09 47.95515 2.14218 37168 ft 465 kts 183°
2026-04-21 07:10 47.89049 2.14597 37171 ft 465 kts 183°
2026-04-21 07:10 47.82584 2.14975 37171 ft 465 kts 183°
2026-04-21 07:11 47.76110 2.15353 37138 ft 465 kts 183°
2026-04-21 07:11 47.69658 2.15729 37140 ft 465 kts 183°
2026-04-21 07:12 47.63197 2.16102 37137 ft 465 kts 183°
2026-04-21 07:12 47.56736 2.16479 37121 ft 464 kts 183°
2026-04-21 07:13 47.50281 2.16855 37140 ft 464 kts 183°
2026-04-21 07:13 47.43839 2.17225 37135 ft 464 kts 183°
2026-04-21 07:14 47.37431 2.17593 37118 ft 464 kts 183°
2026-04-21 07:14 47.30985 2.17964 37114 ft 463 kts 182°
2026-04-21 07:15 47.24539 2.18332 37116 ft 463 kts 182°
2026-04-21 07:15 47.18112 2.18698 37115 ft 463 kts 182°
2026-04-21 07:16 47.11696 2.19075 37101 ft 461 kts 181°
2026-04-21 07:16 47.05376 2.21156 37110 ft 473 kts 162°
2026-04-21 07:17 46.99268 2.24805 37106 ft 473 kts 161°
2026-04-21 07:17 46.93165 2.28421 37093 ft 472 kts 162°
2026-04-21 07:18 46.87065 2.31972 37103 ft 472 kts 162°
2026-04-21 07:18 46.80965 2.35506 37105 ft 472 kts 162°
2026-04-21 07:19 46.74864 2.39044 37098 ft 472 kts 162°
2026-04-21 07:19 46.68767 2.42567 37095 ft 471 kts 162°
2026-04-21 07:20 46.62669 2.46074 37103 ft 473 kts 162°
2026-04-21 07:20 46.56542 2.49595 37095 ft 472 kts 162°
2026-04-21 07:21 46.50463 2.53085 37077 ft 471 kts 162°
2026-04-21 07:21 46.44360 2.56576 37081 ft 471 kts 162°
2026-04-21 07:22 46.38262 2.60054 37082 ft 471 kts 162°
2026-04-21 07:22 46.32162 2.63524 37068 ft 471 kts 162°
2026-04-21 07:23 46.26072 2.66977 37073 ft 471 kts 162°
2026-04-21 07:23 46.19973 2.70449 37073 ft 470 kts 162°
2026-04-21 07:24 46.13881 2.73893 37080 ft 470 kts 163°
2026-04-21 07:24 46.07787 2.77325 37064 ft 470 kts 163°
2026-04-21 07:25 46.01678 2.80772 37070 ft 471 kts 163°
2026-04-21 07:25 45.95547 2.84069 37065 ft 470 kts 164°
2026-04-21 07:26 45.89409 2.87319 37064 ft 470 kts 164°
2026-04-21 07:26 45.83276 2.90547 37073 ft 470 kts 164°
2026-04-21 07:27 45.77132 2.93765 37078 ft 469 kts 166°
2026-04-21 07:27 45.70805 2.95300 37060 ft 457 kts 185°
2026-04-21 07:28 45.64479 2.95093 37054 ft 454 kts 187°
2026-04-21 07:28 45.58153 2.94872 37050 ft 454 kts 186°
2026-04-21 07:29 45.51871 2.94706 37037 ft 455 kts 186°
2026-04-21 07:29 45.45529 2.94541 37040 ft 455 kts 187°
2026-04-21 07:30 45.39191 2.94370 37033 ft 455 kts 186°
2026-04-21 07:30 45.32851 2.94204 37045 ft 457 kts 186°
2026-04-21 07:31 45.26540 2.94040 37047 ft 455 kts 186°
2026-04-21 07:31 45.20246 2.93872 37047 ft 455 kts 186°
2026-04-21 07:32 45.13914 2.93703 37024 ft 455 kts 186°
2026-04-21 07:32 45.07581 2.93542 37036 ft 455 kts 186°
2026-04-21 07:33 45.01294 2.93380 37033 ft 454 kts 186°
2026-04-21 07:33 44.94969 2.93206 37012 ft 455 kts 187°
2026-04-21 07:34 44.88674 2.93048 37021 ft 454 kts 186°
2026-04-21 07:34 44.82383 2.92776 37023 ft 452 kts 188°
2026-04-21 07:35 44.76142 2.92337 37015 ft 452 kts 188°
2026-04-21 07:35 44.69964 2.91870 37005 ft 453 kts 188°
2026-04-21 07:36 44.63697 2.91419 37002 ft 452 kts 188°
2026-04-21 07:36 44.57555 2.90970 36974 ft 452 kts 188°
2026-04-21 07:37 44.51264 2.90512 36993 ft 452 kts 188°
2026-04-21 07:37 44.44981 2.90058 36989 ft 452 kts 188°
2026-04-21 07:38 44.39715 2.89678 36985 ft 452 kts 188°
2026-04-21 07:38 44.33478 2.89226 36983 ft 452 kts 188°
2026-04-21 07:39 44.27192 2.88773 36987 ft 452 kts 188°
2026-04-21 07:39 44.20876 2.88318 36979 ft 452 kts 188°
2026-04-21 07:40 44.14643 2.87870 36977 ft 450 kts 188°
2026-04-21 07:40 44.08389 2.87423 36975 ft 452 kts 189°
2026-04-21 07:41 44.02110 2.86977 36985 ft 451 kts 188°
2026-04-21 07:41 43.95863 2.86524 36971 ft 449 kts 188°
2026-04-21 07:42 43.89607 2.86081 36977 ft 450 kts 188°
2026-04-21 07:42 43.83361 2.85649 36973 ft 450 kts 188°
2026-04-21 07:43 43.77097 2.85281 36961 ft 452 kts 186°
2026-04-21 07:43 43.70811 2.85353 36968 ft 453 kts 185°
2026-04-21 07:44 43.64493 2.85447 36970 ft 453 kts 185°
2026-04-21 07:44 43.58208 2.85539 36953 ft 452 kts 185°
2026-04-21 07:45 43.51895 2.85625 36969 ft 454 kts 185°
2026-04-21 07:45 43.45593 2.85715 36966 ft 453 kts 185°
2026-04-21 07:46 43.39286 2.85809 36947 ft 453 kts 185°
2026-04-21 07:46 43.33023 2.85902 36967 ft 452 kts 185°
2026-04-21 07:47 43.26744 2.85997 36968 ft 451 kts 185°
2026-04-21 07:47 43.20465 2.86077 36965 ft 451 kts 185°
2026-04-21 07:48 43.14202 2.86168 36958 ft 450 kts 185°
2026-04-21 07:48 43.07947 2.86259 36965 ft 450 kts 185°
2026-04-21 07:49 43.01687 2.86344 36966 ft 451 kts 185°
2026-04-21 07:49 42.95420 2.86438 36957 ft 448 kts 185°
2026-04-21 07:50 42.89185 2.86527 36970 ft 448 kts 185°
2026-04-21 07:50 42.83093 2.86621 36964 ft 448 kts 185°
2026-04-21 07:51 42.76855 2.86707 36965 ft 448 kts 185°
2026-04-21 07:51 42.70671 2.86242 36964 ft 444 kts 190°
2026-04-21 07:52 42.64512 2.85526 36964 ft 444 kts 190°
2026-04-21 07:52 42.58359 2.84802 36964 ft 444 kts 190°
2026-04-21 07:53 42.52203 2.84080 36967 ft 443 kts 190°
2026-04-21 07:53 42.46164 2.83376 36963 ft 443 kts 190°
2026-04-21 07:54 42.40093 2.82653 36967 ft 443 kts 190°
2026-04-21 07:54 42.33988 2.81949 36944 ft 444 kts 190°
2026-04-21 07:55 42.27836 2.81238 36946 ft 443 kts 190°
2026-04-21 07:55 42.21777 2.80527 36947 ft 444 kts 190°
2026-04-21 07:56 42.15631 2.79828 36948 ft 444 kts 189°
2026-04-21 07:56 42.09517 2.79123 36957 ft 444 kts 190°
2026-04-21 07:57 42.03397 2.78416 36962 ft 444 kts 190°
2026-04-21 07:57 41.97290 2.77701 36966 ft 444 kts 190°
2026-04-21 07:58 41.91179 2.77061 36957 ft 445 kts 188°
2026-04-21 07:58 41.85006 2.76553 36902 ft 438 kts 188°
2026-04-21 07:59 41.81967 2.76306 36567 ft 441 kts 188°
2026-04-21 07:59 41.78932 2.76052 36290 ft 443 kts 188°
2026-04-21 07:59 41.75852 2.75796 36018 ft 442 kts 188°
2026-04-21 07:59 41.72786 2.75545 35753 ft 441 kts 188°
2026-04-21 08:00 41.69690 2.75285 35484 ft 439 kts 188°
2026-04-21 08:00 41.66685 2.75104 35232 ft 438 kts 186°
2026-04-21 08:00 41.63593 2.74974 34969 ft 437 kts 186°
2026-04-21 08:00 41.60562 2.74842 34728 ft 435 kts 186°
2026-04-21 08:01 41.57547 2.74711 34484 ft 433 kts 186°
2026-04-21 08:01 41.54537 2.74586 34245 ft 432 kts 186°
2026-04-21 08:01 41.51541 2.74469 33988 ft 430 kts 186°
2026-04-21 08:02 41.45599 2.74226 33255 ft 423 kts 186°
2026-04-21 08:02 41.42672 2.74103 32775 ft 420 kts 186°
2026-04-21 08:02 41.39763 2.73984 32303 ft 416 kts 186°
2026-04-21 08:02 41.36916 2.73862 31813 ft 414 kts 186°
2026-04-21 08:03 41.34005 2.73734 31311 ft 412 kts 186°
2026-04-21 08:03 41.31150 2.73613 30823 ft 410 kts 186°
2026-04-21 08:03 41.28349 2.73495 30373 ft 407 kts 186°
2026-04-21 08:03 41.25485 2.73375 29863 ft 405 kts 186°
2026-04-21 08:04 41.22718 2.73259 29335 ft 403 kts 186°
2026-04-21 08:04 41.19921 2.73148 28823 ft 400 kts 186°
2026-04-21 08:04 41.17143 2.73035 28330 ft 398 kts 186°
2026-04-21 08:04 41.14392 2.72926 27861 ft 394 kts 186°
2026-04-21 08:05 41.11660 2.72810 27418 ft 391 kts 186°
2026-04-21 08:05 41.08949 2.72692 26933 ft 389 kts 186°
2026-04-21 08:05 41.06254 2.72577 26457 ft 387 kts 186°
2026-04-21 08:05 41.03574 2.72466 26006 ft 384 kts 186°
2026-04-21 08:06 41.00907 2.72356 25565 ft 382 kts 186°
2026-04-21 08:06 40.98261 2.72248 25150 ft 379 kts 186°
2026-04-21 08:06 40.95639 2.72142 24722 ft 377 kts 186°
2026-04-21 08:06 40.93023 2.72035 24279 ft 376 kts 186°
2026-04-21 08:07 40.90412 2.71931 23828 ft 375 kts 186°
2026-04-21 08:07 40.87808 2.71828 23344 ft 374 kts 185°
2026-04-21 08:07 40.85208 2.71721 22847 ft 372 kts 185°
2026-04-21 08:07 40.82630 2.71612 22392 ft 369 kts 185°
2026-04-21 08:08 40.80071 2.71508 21938 ft 367 kts 185°
2026-04-21 08:08 40.77531 2.71402 21464 ft 365 kts 185°
2026-04-21 08:08 40.74994 2.71299 21014 ft 363 kts 185°
2026-04-21 08:08 40.72480 2.71198 20586 ft 360 kts 185°
2026-04-21 08:09 40.69984 2.71098 20165 ft 358 kts 185°
2026-04-21 08:09 40.67502 2.70995 19745 ft 356 kts 185°
2026-04-21 08:09 40.65034 2.70893 19344 ft 355 kts 184°
2026-04-21 08:09 40.62569 2.70791 18953 ft 353 kts 184°
2026-04-21 08:10 40.60109 2.70689 18567 ft 353 kts 184°
2026-04-21 08:10 40.57659 2.70587 18166 ft 352 kts 184°
2026-04-21 08:10 40.55206 2.70490 17728 ft 353 kts 184°
2026-04-21 08:10 40.52773 2.70394 17324 ft 347 kts 184°
2026-04-21 08:11 40.50384 2.70483 16939 ft 343 kts 173°
2026-04-21 08:11 40.48140 2.71488 16580 ft 340 kts 155°
2026-04-21 08:11 40.46080 2.72974 16233 ft 335 kts 152°
2026-04-21 08:11 40.44074 2.74485 15879 ft 331 kts 152°
2026-04-21 08:12 40.42102 2.75955 15544 ft 330 kts 153°
2026-04-21 08:12 40.40102 2.77422 15222 ft 329 kts 153°
2026-04-21 08:12 40.38104 2.78880 14909 ft 328 kts 153°
2026-04-21 08:12 40.36116 2.80325 14575 ft 328 kts 153°
2026-04-21 08:13 40.34121 2.81769 14220 ft 328 kts 153°
2026-04-21 08:13 40.32123 2.83212 13882 ft 328 kts 153°
2026-04-21 08:13 40.30122 2.84656 13510 ft 328 kts 153°
2026-04-21 08:13 40.28126 2.86097 13156 ft 327 kts 153°
2026-04-21 08:14 40.26133 2.87535 12830 ft 326 kts 153°
2026-04-21 08:14 40.24152 2.88962 12501 ft 324 kts 153°
2026-04-21 08:14 40.22180 2.90379 12171 ft 323 kts 153°
2026-04-21 08:14 40.20236 2.91780 11917 ft 314 kts 153°
2026-04-21 08:15 40.18346 2.93140 11692 ft 306 kts 153°
2026-04-21 08:15 40.16491 2.94474 11345 ft 303 kts 153°
2026-04-21 08:15 40.14658 2.95791 10990 ft 300 kts 152°
2026-04-21 08:15 40.12819 2.97110 10633 ft 301 kts 152°
2026-04-21 08:16 40.10981 2.98428 10303 ft 302 kts 152°
2026-04-21 08:16 40.09154 2.99737 9998 ft 298 kts 152°
2026-04-21 08:16 40.07344 3.01031 9648 ft 295 kts 152°
2026-04-21 08:16 40.05560 3.02307 9287 ft 294 kts 152°
2026-04-21 08:17 40.03766 3.03587 8945 ft 294 kts 152°
2026-04-21 08:17 40.01974 3.04866 8614 ft 294 kts 152°
2026-04-21 08:17 40.00178 3.06149 8298 ft 294 kts 152°
2026-04-21 08:17 39.98390 3.07425 7977 ft 290 kts 152°
2026-04-21 08:18 39.96638 3.08680 7672 ft 287 kts 151°
2026-04-21 08:18 39.94891 3.09922 7378 ft 286 kts 151°
2026-04-21 08:18 39.93110 3.11058 7059 ft 285 kts 162°
2026-04-21 08:18 39.91180 3.11370 6862 ft 277 kts 183°
2026-04-21 08:19 39.89290 3.11147 6722 ft 266 kts 187°
2026-04-21 08:19 39.87488 3.10891 6587 ft 255 kts 187°
2026-04-21 08:19 39.85753 3.10652 6329 ft 249 kts 186°
2026-04-21 08:19 39.84033 3.10424 5959 ft 247 kts 186°
2026-04-21 08:20 39.82325 3.10204 5528 ft 246 kts 186°
2026-04-21 08:20 39.80652 3.09990 5176 ft 245 kts 186°
2026-04-21 08:20 39.78963 3.09777 4846 ft 243 kts 186°
2026-04-21 08:20 39.77284 3.09566 4543 ft 241 kts 186°
2026-04-21 08:21 39.75620 3.09360 4479 ft 239 kts 185°
2026-04-21 08:21 39.73966 3.09155 4479 ft 239 kts 185°
2026-04-21 08:21 39.72312 3.08929 4490 ft 237 kts 189°
2026-04-21 08:21 39.70835 3.08234 4473 ft 219 kts 217°
2026-04-21 08:22 39.69803 3.06813 4245 ft 215 kts 236°
2026-04-21 08:22 39.69120 3.05088 3906 ft 216 kts 243°
2026-04-21 08:22 39.68365 3.03416 3609 ft 214 kts 239°
2026-04-21 08:22 39.67618 3.01801 3444 ft 200 kts 238°
2026-04-21 08:23 39.66912 3.00295 3271 ft 192 kts 237°
2026-04-21 08:23 39.66221 2.98826 2977 ft 191 kts 237°
2026-04-21 08:23 39.65530 2.97358 2688 ft 190 kts 237°
2026-04-21 08:23 39.64844 2.95899 2489 ft 188 kts 237°
2026-04-21 08:24 39.64163 2.94450 2501 ft 188 kts 237°
2026-04-21 08:24 39.63482 2.93006 2523 ft 188 kts 237°
2026-04-21 08:24 39.62798 2.91554 2521 ft 188 kts 237°
2026-04-21 08:24 39.62346 2.90595 2484 ft 189 kts 237°
2026-04-21 08:25 39.61665 2.89149 2324 ft 184 kts 237°
2026-04-21 08:25 39.61040 2.87819 2107 ft 160 kts 237°
2026-04-21 08:25 39.60340 2.86331 1787 ft 139 kts 237°
2026-04-21 08:25 39.60000 2.85610 1671 ft 139 kts 237°
2026-04-21 08:26 39.59497 2.84542 1497 ft 138 kts 237°
2026-04-21 08:26 39.58995 2.83477 1326 ft 138 kts 237°
2026-04-21 08:26 39.58496 2.82417 1149 ft 138 kts 238°
2026-04-21 08:26 39.57996 2.81359 973 ft 137 kts 238°
2026-04-21 08:27 39.57498 2.80304 787 ft 137 kts 238°
2026-04-21 08:27 39.57000 2.79250 609 ft 137 kts 239°
2026-04-21 08:27 39.56505 2.78201 427 ft 136 kts 239°
2026-04-21 08:27 39.56017 2.77151 245 ft 136 kts 239°
2026-04-21 08:28 39.55520 2.76108 85 ft 136 kts 236°
2026-04-21 08:28 39.55042 2.75117 35 ft 111 kts 238°
2026-04-21 08:28 39.54752 2.74498 35 ft 52 kts 238°
2026-04-21 08:28 39.54648 2.74275 35 ft 22 kts 239°
2026-04-21 08:29 39.54577 2.74085 35 ft 24 kts 250°
2026-04-21 08:29 39.54550 2.73863 35 ft 26 kts 270°
2026-04-21 08:29 39.54561 2.73700 35 ft 15 kts 291°
2026-04-21 08:29 39.54634 2.73621 35 ft 14 kts 351°
2026-04-21 08:30 39.54718 2.73572 35 ft 12 kts 327°
2026-04-21 08:30 39.54769 2.73549 35 ft 5 kts 28°
2026-04-21 08:30 39.54793 2.73588 35 ft 6 kts 60°
2026-04-21 08:30 39.54801 2.73607 35 ft 0 kts 60°